TimeEDT,TemperatureF,Dew PointF,Humidity,Sea Level PressureIn,VisibilityMPH,Wind Direction,Wind SpeedMPH,Gust SpeedMPH,PrecipitationIn,Events,Conditions,WindDirDegrees,DateUTC
12:15 AM,77.0,66.2,69,30.00,10.0,SSW,8.1,-,N/A,,Clear,210,2013-06-17 04:15:00
12:35 AM,77.0,66.2,69,30.01,10.0,SSW,8.1,-,N/A,,Clear,210,2013-06-17 04:35:00
12:55 AM,77.0,66.2,69,30.00,10.0,SW,9.2,-,N/A,,Clear,220,2013-06-17 04:55:00
1:15 AM,77.0,66.2,69,30.00,10.0,SW,11.5,-,N/A,,Clear,220,2013-06-17 05:15:00
1:35 AM,77.0,66.2,69,30.00,10.0,SW,8.1,-,N/A,,Clear,220,2013-06-17 05:35:00
1:55 AM,75.2,66.2,73,30.00,10.0,SSW,10.4,-,N/A,,Clear,210,2013-06-17 05:55:00
2:15 AM,75.2,66.2,73,30.00,10.0,SW,9.2,-,N/A,,Clear,220,2013-06-17 06:15:00
2:35 AM,75.2,66.2,73,30.00,10.0,SSW,11.5,16.1,N/A,,Scattered Clouds,210,2013-06-17 06:35:00
2:55 AM,75.2,66.2,73,30.01,10.0,SW,9.2,-,N/A,,Overcast,220,2013-06-17 06:55:00
3:15 AM,75.2,66.2,73,30.01,10.0,WSW,6.9,-,N/A,,Scattered Clouds,250,2013-06-17 07:15:00
3:35 AM,75.2,66.2,73,30.01,10.0,SW,6.9,-,N/A,,Clear,220,2013-06-17 07:35:00
3:55 AM,73.4,66.2,78,30.00,10.0,SSW,8.1,-,N/A,,Clear,210,2013-06-17 07:55:00
4:15 AM,73.4,66.2,78,30.01,10.0,SW,6.9,-,N/A,,Clear,220,2013-06-17 08:15:00
4:35 AM,73.4,66.2,78,30.01,10.0,SW,8.1,-,N/A,,Scattered Clouds,220,2013-06-17 08:35:00
4:55 AM,73.4,66.2,78,30.01,10.0,SSW,8.1,-,N/A,,Overcast,210,2013-06-17 08:55:00
5:15 AM,73.4,66.2,78,30.01,10.0,SW,6.9,-,N/A,,Mostly Cloudy,220,2013-06-17 09:15:00
5:35 AM,73.4,66.2,78,30.02,10.0,SSW,6.9,-,N/A,,Scattered Clouds,210,2013-06-17 09:35:00
5:55 AM,73.4,66.2,78,30.02,10.0,SSW,5.8,-,N/A,,Mostly Cloudy,210,2013-06-17 09:55:00
6:15 AM,73.4,66.2,78,30.02,10.0,SW,4.6,-,N/A,,Mostly Cloudy,220,2013-06-17 10:15:00
6:35 AM,73.4,66.2,78,30.02,10.0,SSW,4.6,-,N/A,,Scattered Clouds,210,2013-06-17 10:35:00
6:55 AM,73.4,66.2,78,30.02,10.0,SSW,5.8,-,N/A,,Scattered Clouds,210,2013-06-17 10:55:00
7:15 AM,73.4,66.2,78,30.03,10.0,SW,4.6,-,N/A,,Mostly Cloudy,220,2013-06-17 11:15:00
7:35 AM,73.4,66.2,78,30.02,10.0,SW,5.8,-,N/A,,Mostly Cloudy,220,2013-06-17 11:35:00
7:55 AM,73.4,66.2,78,30.02,10.0,SW,4.6,-,N/A,,Mostly Cloudy,220,2013-06-17 11:55:00
8:15 AM,73.4,66.2,78,30.02,10.0,SW,4.6,-,N/A,,Scattered Clouds,220,2013-06-17 12:15:00
8:35 AM,75.2,66.2,73,30.03,10.0,WSW,3.5,-,N/A,,Scattered Clouds,250,2013-06-17 12:35:00
8:55 AM,75.2,66.2,73,30.03,10.0,SW,3.5,-,N/A,,Scattered Clouds,230,2013-06-17 12:55:00
9:15 AM,75.2,66.2,73,30.03,10.0,SW,5.8,-,N/A,,Scattered Clouds,230,2013-06-17 13:15:00
9:35 AM,75.2,66.2,73,30.03,10.0,WSW,5.8,-,N/A,,Scattered Clouds,240,2013-06-17 13:35:00
9:55 AM,77.0,68.0,74,30.02,10.0,SW,4.6,-,N/A,,Scattered Clouds,220,2013-06-17 13:55:00
10:15 AM,78.8,68.0,69,30.03,10.0,WSW,6.9,-,N/A,,Scattered Clouds,250,2013-06-17 14:15:00
10:35 AM,78.8,68.0,69,30.02,10.0,SW,6.9,-,N/A,,Scattered Clouds,230,2013-06-17 14:35:00
10:55 AM,80.6,68.0,65,30.01,10.0,SSW,5.8,-,N/A,,Scattered Clouds,210,2013-06-17 14:55:00
11:15 AM,82.4,69.8,66,30.01,10.0,SSW,8.1,-,N/A,,Clear,200,2013-06-17 15:15:00
11:35 AM,82.4,69.8,66,30.00,10.0,West,4.6,-,N/A,,Clear,260,2013-06-17 15:35:00
11:55 AM,82.4,69.8,66,29.99,10.0,SW,6.9,-,N/A,,Clear,220,2013-06-17 15:55:00
12:15 PM,84.2,69.8,62,29.99,10.0,SSW,6.9,-,N/A,,Clear,210,2013-06-17 16:15:00
12:35 PM,84.2,69.8,62,29.99,10.0,SW,5.8,-,N/A,,Clear,220,2013-06-17 16:35:00
12:55 PM,84.2,69.8,62,29.98,10.0,SSW,5.8,-,N/A,,Clear,200,2013-06-17 16:55:00
1:15 PM,86.0,69.8,58,29.98,10.0,SW,6.9,-,N/A,,Clear,220,2013-06-17 17:15:00
1:35 PM,87.8,69.8,55,29.98,10.0,West,4.6,-,N/A,,Clear,270,2013-06-17 17:35:00
1:55 PM,84.2,69.8,62,29.98,10.0,West,4.6,-,N/A,,Scattered Clouds,260,2013-06-17 17:55:00
2:15 PM,78.8,71.6,78,29.98,10.0,NW,8.1,-,N/A,,Overcast,320,2013-06-17 18:15:00
2:35 PM,71.6,71.6,100,29.98,0.2,SSW,11.5,21.9,N/A,,Overcast,200,2013-06-17 18:35:00
2:55 PM,71.6,69.8,94,29.99,10.0,SSE,6.9,-,N/A,,Scattered Clouds,160,2013-06-17 18:55:00
3:15 PM,71.6,71.6,100,29.99,7.0,SSW,11.5,-,N/A,,Scattered Clouds,210,2013-06-17 19:15:00
3:35 PM,71.6,71.6,100,30.00,4.0,SSW,6.9,-,N/A,,Overcast,210,2013-06-17 19:35:00
3:55 PM,71.6,71.6,100,29.99,7.0,SSE,3.5,-,N/A,,Mostly Cloudy,160,2013-06-17 19:55:00
4:15 PM,71.6,71.6,100,29.98,10.0,ESE,3.5,-,N/A,,Clear,120,2013-06-17 20:15:00
4:35 PM,73.4,73.4,100,29.97,10.0,South,5.8,-,N/A,,Clear,170,2013-06-17 20:35:00
4:55 PM,75.2,71.6,89,29.96,10.0,South,6.9,-,N/A,,Clear,180,2013-06-17 20:55:00
5:15 PM,77.0,71.6,83,29.96,10.0,South,4.6,-,N/A,,Clear,190,2013-06-17 21:15:00
5:35 PM,78.8,71.6,78,29.95,10.0,South,3.5,-,N/A,,Clear,190,2013-06-17 21:35:00
5:55 PM,78.8,71.6,78,29.94,10.0,South,6.9,-,N/A,,Clear,180,2013-06-17 21:55:00
6:15 PM,78.8,73.4,83,29.95,10.0,South,5.8,-,N/A,,Clear,170,2013-06-17 22:15:00
6:35 PM,78.8,73.4,83,29.95,10.0,SSE,5.8,-,N/A,,Clear,160,2013-06-17 22:35:00
6:55 PM,78.8,71.6,78,29.96,10.0,South,6.9,-,N/A,,Clear,170,2013-06-17 22:55:00
7:15 PM,78.8,73.4,83,29.96,10.0,South,4.6,-,N/A,,Clear,170,2013-06-17 23:15:00
7:35 PM,78.8,73.4,83,29.96,10.0,South,3.5,-,N/A,,Clear,170,2013-06-17 23:35:00
7:55 PM,77.0,73.4,89,29.96,10.0,South,4.6,-,N/A,,Clear,170,2013-06-17 23:55:00
8:15 PM,75.2,73.4,94,29.96,10.0,South,5.8,-,N/A,,Clear,170,2013-06-18 00:15:00
8:35 PM,75.2,71.6,89,29.96,10.0,South,11.5,-,N/A,,Scattered Clouds,170,2013-06-18 00:35:00
8:55 PM,75.2,73.4,94,29.97,10.0,South,5.8,-,N/A,,Scattered Clouds,170,2013-06-18 00:55:00
9:15 PM,73.4,73.4,100,29.96,10.0,South,6.9,-,N/A,,Mostly Cloudy,170,2013-06-18 01:15:00
9:35 PM,73.4,73.4,100,29.96,10.0,South,8.1,-,N/A,,Mostly Cloudy,170,2013-06-18 01:35:00
9:55 PM,73.4,73.4,100,29.97,10.0,South,8.1,-,N/A,,Scattered Clouds,180,2013-06-18 01:55:00
10:15 PM,73.4,73.4,100,29.97,10.0,South,6.9,-,N/A,,Clear,180,2013-06-18 02:15:00
10:35 PM,73.4,73.4,100,29.97,10.0,South,8.1,-,N/A,,Clear,190,2013-06-18 02:35:00
10:55 PM,73.4,73.4,100,29.97,10.0,South,8.1,-,N/A,,Clear,190,2013-06-18 02:55:00
11:15 PM,73.4,73.4,100,29.97,10.0,South,6.9,-,N/A,,Scattered Clouds,190,2013-06-18 03:15:00
11:35 PM,75.2,73.4,94,29.97,10.0,SSW,9.2,-,N/A,,Scattered Clouds,200,2013-06-18 03:35:00
11:55 PM,75.2,73.4,94,29.97,10.0,SSW,5.8,-,N/A,,Clear,200,2013-06-18 03:55:00